Tracking 19720 objects as of 26-Jun-2019
HD Live streaming from Space Station
objects crossing your sky now

GGSE 3 DEB

Track GGSE 3 DEB now!
10-day predictions


NORAD ID: 44043
Int'l Code: 1965-016L
Perigee: 885.3 km
Apogee: 912.4 km
Inclination: 70.1 °
Period: 102.8 minutes
Semi major axis: 7269 km
RCS: Unknown
Launch date: March 9, 1965
Source: United States (US)
Launch site: AIR FORCE WESTERN TEST RANGE (AFWTR)

Note: This is SATELLITE DEBRIS
aabbcc
Your satellite tracking list
Your tracking list is empty




NASA's NSSDC Master Catalog

Two Line Element Set (TLE):
1 44043U 65016L   19176.66620184 +.00000181 +00000-0 +15704-3 0  9990
2 44043 070.0784 024.4422 0018623 091.9422 268.3811 14.00610710018578
Source of the keplerian elements: AFSPC